Flag for U.S.A. Weather past 2 weeks in Brownsville, Texas, U.S.A.

Now
91 °F

Broken clouds.


Feels Like: 103 °F
Forecast: 79 / 91 °F
Wind: 26 mph from South

Location: Brownsville / South Padre Island International Airport

Current Time: Jul 7, 2015 at 3:53:15 PM

Latest Report: Jul 7, 2015 at 2:53 PM


Visibility: 10 mi

Pressure: 29.96 "Hg

Humidity: 61%

Dew point: 76 °F

Location of BrownsvilleLocation

Historic Weather in Brownsville — Graph

°F

Brownsville temperature yesterday

Maximum temperature yesterday: 91 °F (at 1:53 PM)
Minimum temperature yesterday: 78 °F (at 4:53 AM)
Average temperature yesterday: 84 °F

Past Weeks' High & Low Weather Summary

 TemperatureHumidityPressure
High94 °F (Jun 26, 2:53 PM)97% (Jul 1, 7:53 AM)30.12 "Hg (Jul 1, 7:53 AM)
Low72 °F (Jul 1, 10:53 AM)48% (Jun 26, 3:53 PM)29.91 "Hg (Jul 3, 6:53 PM)
Average83 °F77%30.00 "Hg
* Reported Jun 22 2:53 PM — Jul 7 2:53 PM, Brownsville, Weather by CustomWeather, © 2015

Note: Actual official high and low records may vary slightly from our data, if they occured in-between our weather recording intervals... More about our weather records

Advertising

Brownsville weather history for previous 24 hours

 ConditionsComfort  
Time TempWeatherWind HumidityBarometerVisibility
2:53 PM
Tue, Jul 7
91 °FBroken clouds.26 mph61%29.96 "Hg10 mi
1:53 PM90 °FPartly sunny.22 mph63%29.98 "Hg10 mi
12:53 PM90 °FBroken clouds.28 mph61%29.99 "Hg10 mi
11:53 AM89 °FScattered clouds.25 mph63%29.99 "Hg10 mi
10:53 AM87 °FBroken clouds.24 mph69%29.99 "Hg10 mi
9:53 AM85 °FPartly sunny.24 mph75%30.00 "Hg10 mi
8:53 AM83 °FSunny.22 mph82%29.99 "Hg9 mi
7:53 AM81 °FBroken clouds.10 mph91%29.98 "Hg7 mi
6:53 AM79 °FFog.9 mph94%29.97 "Hg6 mi
5:53 AM79 °FFog.7 mph94%29.97 "Hg6 mi
4:53 AM79 °FFog.8 mph94%29.96 "Hg6 mi
3:53 AM79 °FClear.8 mph94%29.97 "Hg7 mi
2:53 AM80 °FClear.7 mph90%29.99 "Hg8 mi
1:53 AM81 °FClear.10 mph88%29.98 "Hg8 mi
12:53 AM81 °FPassing clouds.13 mph91%29.97 "Hg8 mi
11:53 PM
Mon, Jul 6
82 °FClear.13 mph88%29.96 "Hg8 mi
10:53 PM82 °FClear.13 mph88%29.96 "Hg8 mi
9:53 PM83 °FPassing clouds.17 mph88%29.95 "Hg8 mi
9:01 PM83 °FPartly sunny.15 mph88%29.95 "Hg8 mi
7:53 PM85 °FScattered clouds.14 mph80%29.94 "Hg9 mi
6:53 PM86 °FScattered clouds.20 mph75%29.94 "Hg9 mi
5:53 PM87 °FPartly sunny.21 mph72%29.95 "Hg10 mi
4:53 PM89 °FScattered clouds.20 mph65%29.97 "Hg10 mi
3:53 PM90 °FScattered clouds.18 mph66%29.98 "Hg10 mi
Weather by CustomWeather, © 2015

See weather overviewHow to use our weather pages